EW6527 Weather Reports


time (UTC)temp
C
wind
direction
speed
KPH
gust
KPH
rain 1hr
cm
rain 24hr
cm
rain mn
cm
humidity
%
barometer
mb
20260905211541 19 0 0.0 0.0 0.00 0.00 0.00 53 1030.2
20260905211026 20 0 0.0 0.0 0.00 0.00 0.00 52 1029.5
20260905205541 20 0 0.0 0.0 0.00 0.00 0.00 51 1029.3
20260905204541 20 0 0.0 0.0 0.00 0.00 0.00 50 1029.2
20260905203541 20 0 0.0 0.0 0.00 0.00 0.00 50 1029.1
20260905202541 20 0 0.0 0.0 0.00 0.00 0.00 49 1029.0
20260905201540 20 0 0.0 0.0 0.00 0.00 0.00 49 1028.9
20260905200541 20 0 0.0 0.0 0.00 0.00 0.00 49 1029.0
20260905195541 20 0 0.0 0.0 0.00 0.00 0.00 49 1028.9
20260905194541 20 0 0.0 0.0 0.00 0.00 0.00 49 1028.8
20260905194519 21 0 0.0 0.0 0.00 0.00 0.00 49 1028.7
20260905192541 21 0 0.0 0.0 0.00 0.00 0.00 49 1028.6
20260905192451 21 0 0.0 0.0 0.00 0.00 0.00 50 1028.6
20260905190538 21 0 0.0 0.0 0.00 0.00 0.00 50 1028.6
20260905185532 21 0 0.0 0.0 0.00 0.00 0.00 50 1028.6
20260905184533 21 0 0.0 0.0 0.00 0.00 0.00 50 1028.4
20260905183533 21 0 0.0 0.0 0.00 0.00 0.00 49 1028.3
20260905182532 21 0 0.0 0.0 0.00 0.00 0.00 50 1028.3
20260905182010 21 0 0.0 0.0 0.00 0.00 0.00 50 1028.3
20260905180533 21 0 0.0 0.0 0.00 0.00 0.00 49 1028.3
20260905175531 21 0 0.0 0.0 0.00 0.00 0.00 49 1028.1
20260905174531 21 0 0.0 0.0 0.00 0.00 0.00 49 1028.0
20260905173532 21 0 0.0 0.0 0.00 0.00 0.00 48 1027.9
20260905172531 22 0 0.0 0.0 0.00 0.00 0.00 48 1027.8
20260905172015 22 0 0.0 0.0 0.00 0.00 0.00 48 1027.6
20260905170532 22 0 0.0 0.0 0.00 0.00 0.00 47 1027.5
20260905165531 22 0 0.0 0.0 0.00 0.00 0.00 47 1027.5
20260905165016 22 0 0.0 0.0 0.00 0.00 0.00 46 1027.2
20260905163947 23 0 0.0 0.0 0.00 0.00 0.00 45 1027.1
20260905163717 23 0 0.0 0.0 0.00 0.00 0.00 46 1027.2
20260905161530 23 0 0.0 0.0 0.00 0.00 0.00 45 1027.1
20260905161459 23 0 0.0 0.0 0.00 0.00 0.00 44 1027.1
20260905155529 23 0 0.0 0.0 0.00 0.00 0.00 43 1026.9
20260905154530 23 0 0.0 0.0 0.00 0.00 0.00 41 1026.8
20260905153528 23 0 0.0 0.0 0.00 0.00 0.00 41 1026.8
20260905152527 24 0 0.0 0.0 0.00 0.00 0.00 40 1026.7
20260905151528 25 0 0.0 0.0 0.00 0.00 0.00 39 1026.6
20260905150528 25 0 0.0 0.0 0.00 0.00 0.00 38 1026.6
20260905145528 25 0 0.0 0.0 0.00 0.00 0.00 38 1026.6
20260905144529 26 0 0.0 0.0 0.00 0.00 0.00 39 1026.6
20260905143528 26 0 0.0 0.0 0.00 0.00 0.00 40 1026.5
20260905142528 26 0 0.0 0.0 0.00 0.00 0.00 40 1026.6
20260905141526 26 0 0.0 0.0 0.00 0.00 0.00 40 1026.7
20260905141012 26 0 0.0 0.0 0.00 0.00 0.00 40 1026.7
20260905140005 25 0 0.0 0.0 0.00 0.00 0.00 42 1026.9
20260905134526 26 0 0.0 0.0 0.00 0.00 0.00 41 1026.8
20260905133525 26 0 0.0 0.0 0.00 0.00 0.00 39 1026.8
20260905132526 27 0 0.0 0.0 0.00 0.00 0.00 39 1026.8
20260905131526 26 0 0.0 0.0 0.00 0.00 0.00 40 1026.6
20260905130526 26 0 0.0 0.0 0.00 0.00 0.00 43 1026.6
20260905125526 25 0 0.0 0.0 0.00 0.00 0.00 46 1026.6
20260905124526 23 0 0.0 0.0 0.00 0.00 0.00 48 1026.7
20260905123526 23 0 0.0 0.0 0.00 0.00 0.00 50 1026.6
20260905122526 23 0 0.0 0.0 0.00 0.00 0.00 51 1026.6
20260905121524 23 0 0.0 0.0 0.00 0.00 0.00 49 1026.5
20260905120522 23 0 0.0 0.0 0.00 0.00 0.00 50 1026.8
20260905115521 23 0 0.0 0.0 0.00 0.00 0.00 49 1026.8
20260905114522 23 0 0.0 0.0 0.00 0.00 0.00 49 1026.6
20260905113522 23 0 0.0 0.0 0.00 0.00 0.00 49 1026.7
20260905112521 23 0 0.0 0.0 0.00 0.00 0.00 52 1026.8
20260905111522 22 0 0.0 0.0 0.00 0.00 0.00 56 1026.8
20260905110521 21 0 0.0 0.0 0.00 0.00 0.00 56 1026.9
20260905105912 21 0 0.0 0.0 0.00 0.00 0.00 60 1027.0
20260905105651 21 0 0.0 0.0 0.00 0.00 0.00 58 1026.9
20260905103521 20 0 0.0 0.0 0.00 0.00 0.00 62 1027.2
20260905102950 20 0 0.0 0.0 0.00 0.00 0.00 61 1026.9
20260905101520 20 0 0.0 0.0 0.00 0.00 0.00 62 1027.2
20260905100519 20 0 0.0 0.0 0.00 0.00 0.00 64 1026.9
20260905095517 20 0 0.0 0.0 0.00 0.00 0.00 65 1026.9
20260905094959 19 0 0.0 0.0 0.00 0.00 0.00 67 1026.9
20260905093518 19 0 0.0 0.0 0.00 0.00 0.00 72 1027.0
20260905092517 18 0 0.0 0.0 0.00 0.00 0.00 73 1027.0
20260905092016 18 0 0.0 0.0 0.00 0.00 0.00 74 1027.0
20260905090517 18 0 0.0 0.0 0.00 0.00 0.00 75 1027.3
20260905085956 18 0 0.0 0.0 0.00 0.00 0.00 75 1027.2
20260905084953 18 0 0.0 0.0 0.00 0.00 0.00 74 1027.2
20260905083953 18 0 0.0 0.0 0.00 0.00 0.00 73 1027.2
20260905082956 18 0 0.0 0.0 0.00 0.00 0.00 73 1027.2
20260905081515 17 0 0.0 0.0 0.00 0.00 0.00 74 1027.2
20260905081445 17 0 0.0 0.0 0.00 0.00 0.00 74 1027.1
20260905075515 17 0 0.0 0.0 0.00 0.00 0.00 74 1026.8
20260905074949 17 0 0.0 0.0 0.00 0.00 0.00 74 1027.0
20260905073513 17 0 0.0 0.0 0.00 0.00 0.00 74 1026.6
20260905073425 17 0 0.0 0.0 0.00 0.00 0.00 74 1026.7
20260905071512 17 0 0.0 0.0 0.00 0.00 0.00 74 1026.8
20260905070512 17 0 0.0 0.0 0.00 0.00 0.00 75 1026.5
20260905065512 17 0 0.0 0.0 0.00 0.00 0.00 75 1026.6
20260905064510 17 0 0.0 0.0 0.00 0.00 0.00 75 1026.2
20260905063511 17 0 0.0 0.0 0.00 0.00 0.00 75 1026.3
20260905062511 17 0 0.0 0.0 0.00 0.00 0.00 75 1026.2
20260905061510 18 0 0.0 0.0 0.00 0.00 0.00 76 1025.8
20260905060958 18 0 0.0 0.0 0.00 0.00 0.00 76 1025.7
20260905055508 18 0 0.0 0.0 0.00 0.00 0.00 75 1026.0
20260905054507 18 0 0.0 0.0 0.00 0.00 0.00 74 1025.6
20260905053507 18 0 0.0 0.0 0.00 0.00 0.00 74 1025.6
20260905052505 18 0 0.0 0.0 0.00 0.00 0.00 74 1025.6
20260905051512 18 0 0.0 0.0 0.00 0.00 0.00 74 1025.1
20260905050513 18 0 0.0 0.0 0.00 0.00 0.00 75 1025.2
20260905045512 18 0 0.0 0.0 0.00 0.00 0.00 76 1024.7
20260905044513 18 0 0.0 0.0 0.00 0.00 0.00 76 1025.1
20260905043501 18 0 0.0 0.0 0.00 0.00 0.00 76 1024.9
20260905042501 18 0 0.0 0.0 0.00 0.00 0.00 76 1024.6
20260905041500 18 0 0.0 0.0 0.00 0.00 0.00 76 1024.5
20260905040501 18 0 0.0 0.0 0.00 0.00 0.00 77 1024.2
20260905035505 18 0 0.0 0.0 0.00 0.00 0.00 76 1024.1
20260905034941 18 0 0.0 0.0 0.00 0.00 0.00 75 1023.9
20260905033506 18 0 0.0 0.0 0.00 0.00 0.00 75 1024.0
20260905032511 18 0 0.0 0.0 0.00 0.00 0.00 74 1024.0
20260905031501 18 0 0.0 0.0 0.00 0.00 0.00 74 1023.9
20260905030502 18 0 0.0 0.0 0.00 0.00 0.00 74 1023.9
20260905025501 18 0 0.0 0.0 0.00 0.00 0.00 74 1024.0
20260905024501 18 0 0.0 0.0 0.00 0.00 0.00 74 1024.1
20260905023500 19 0 0.0 0.0 0.00 0.00 0.00 73 1024.2
20260905022500 19 0 0.0 0.0 0.00 0.00 0.00 73 1024.0
20260905021501 19 0 0.0 0.0 0.00 0.00 0.00 71 1024.1
20260905020506 20 0 0.0 0.0 0.00 0.00 0.00 70 1024.0
20260905015512 20 0 0.0 0.0 0.00 0.00 0.00 69 1023.9
20260905014511 20 0 0.0 0.0 0.00 0.00 0.00 69 1023.8
20260905013504 20 0 0.0 0.0 0.00 0.00 0.00 68 1023.8
20260905012506 20 0 0.0 0.0 0.00 0.00 0.00 67 1023.9
20260905011508 20 0 0.0 0.0 0.00 0.00 0.00 66 1023.6
20260905010502 20 0 0.0 0.0 0.00 0.00 0.00 65 1023.5
20260905005456 21 0 0.0 0.0 0.00 0.00 0.00 64 1023.2
20260905004456 21 0 0.0 0.0 0.00 0.00 0.00 61 1023.2
20260905003933 21 0 0.0 0.0 0.00 0.00 0.00 62 1022.5
20260905002456 21 0 0.0 0.0 0.00 0.00 0.00 60 1022.5
20260905001456 22 0 0.0 0.0 0.00 0.00 0.00 58 1022.1
20260905000456 22 0 0.0 0.0 0.00 0.00 0.00 58 1021.8
20260904235455 22 0 0.0 0.0 0.00 0.00 0.00 58 1021.4
20260904234454 23 0 0.0 0.0 0.00 0.00 0.00 61 1021.2
20260904233454 23 0 0.0 0.0 0.00 0.00 0.00 60 1021.0
20260904232451 23 0 0.0 0.0 0.00 0.00 0.00 60 1020.8
20260904231451 23 0 0.0 0.0 0.00 0.00 0.00 62 1020.5
20260904230450 23 0 0.0 0.0 0.00 0.00 0.00 60 1020.3
20260904225450 23 0 0.0 0.0 0.00 0.00 0.00 59 1020.1
20260904224450 23 0 0.0 0.0 0.00 0.00 0.00 59 1019.9
20260904223451 24 0 0.0 0.0 0.00 0.00 0.00 58 1019.2
20260904222933 24 0 0.0 0.0 0.00 0.00 0.00 57 1019.1
20260904221451 24 0 0.0 0.0 0.00 0.00 0.00 56 1019.1
20260904220451 24 0 0.0 0.0 0.00 0.00 0.00 57 1019.2
20260904215451 24 0 0.0 0.0 0.00 0.00 0.00 57 1019.1
20260904214456 24 0 0.0 0.0 0.00 0.00 0.00 57 1019.1
20260904213451 24 0 0.0 0.0 0.00 0.00 0.00 57 1019.4
20260904212451 23 0 0.0 0.0 0.00 0.00 0.00 58 1019.4